Location: Bush Observatory
(40.2653°N, 94.3194°W)
Time: 06:41:40
(UTC-05:00)

Daily predictions for brighter satellites

Satellite Brightness Start Highest point End
(mag) Time Altitude Azimuth Time Altitude Azimuth Time Altitude Azimuth
Cosmos 1346 Rocket 4.4 20:26:57 10° SSW 20:30:50 42° WNW 20:34:45 10° N
Cosmos 1666 Rocket 3.9 20:27:44 10° N 20:32:03 46° E 20:36:19 10° SSE
Cosmos 2074 Rocket 4.4 20:29:09 10° SSW 20:35:26 74° W 20:41:44 10° N
FREGAT/IRIS 4.0 20:35:04 10° S 20:37:51 39° W 20:40:40 10° NNW
Cosmos 2333 Rocket 2.4 20:33:42 10° S 20:39:09 51° ESE 20:44:36 10° NNE
ERS-2 2.2 20:36:47 10° SSE 20:40:23 62° ENE 20:44:02 10° N
Resurs 1-3 4.2 20:37:06 10° SE 20:41:10 39° ENE 20:45:16 10° N
Cosmos 1151 Rocket 4.2 20:37:58 10° SE 20:41:16 22° E 20:44:35 10° NE
CZ-2D R/B 3.2 20:37:41 10° SSE 20:41:29 88° WSW 20:45:19 10° NNW
Cosmos 1455 2.8 20:38:02 10° SSE 20:41:33 36° E 20:45:07 10° NNE
Sich 1 3.0 20:37:50 10° N 20:42:06 65° E 20:46:19 10° SSE
Cosmos 1610 Rocket 4.5 20:36:19 10° S 20:42:27 85° E 20:48:39 10° N
USA 186 1.5 20:40:56 10° SE 20:43:02 35° ENE 20:45:09 10° N
Cosmos 1844 Rocket 2.7 20:37:30 10° NNW 20:43:13 86° ENE 20:48:52 10° SSE
COSMOS 2428 2.8 20:38:32 10° SSW 20:44:16 85° WNW 20:50:02 10° NNE
Cosmos 2333 4.4 20:40:13 10° SSW 20:45:52 80° WNW 20:51:31 10° NNE
Cosmos 1809 Rocket 4.5 20:40:43 10° S 20:46:51 82° E 20:53:04 10° N
Cosmos 1892 2.7 20:45:57 10° N 20:49:49 64° E 20:53:40 10° SSE
Cosmos 1844 3.7 20:44:20 10° NNW 20:50:04 77° ENE 20:55:49 10° SSE
Envisat 3.2 20:45:56 10° S 20:51:00 78° WSW 20:56:07 10° NNW
Cosmos 2251 Rocket 3.6 20:45:55 10° NNW 20:51:19 86° WSW 20:56:40 10° SSE
YAOGAN 6 2.6 20:49:33 10° SSE 20:53:05 60° ENE 20:56:41 10° N
Cosmos 2219 Rocket 2.2 20:47:57 10° SSW 20:53:37 80° ESE 20:59:16 10° NNE
Meteor 2-2 Rocket 4.3 20:48:57 10° S 20:54:46 81° E 21:00:45 10° NNE
Cosmos 2237 Rocket 2.6 20:50:35 10° S 20:55:44 39° ESE 21:00:56 10° NE
Genesis I 3.7 20:58:16 10° NNW 21:02:15 49° NE 21:05:02 18° SE
Meteor 2-14 Rocket 4.4 20:57:09 10° S 21:03:14 83° E 21:09:23 10° N
Cosmos 1633 Rocket 3.0 20:59:46 10° N 21:04:08 86° E 21:08:29 10° S
Cosmos 2278 Rocket 2.7 21:00:20 10° NNW 21:05:46 45° ENE 21:09:51 17° SE
Nadezhda 3 Rocket 4.1 21:00:17 10° N 21:06:37 85° W 21:12:59 10° S
Cosmos 2098 Rocket 4.2 21:07:13 16° SE 21:09:41 25° E 21:12:59 10° NE
NOAA 11 4.4 21:05:46 12° SSE 21:10:44 54° ENE 21:16:06 10° N
CZ-3B R/B 3.9 21:10:52 10° N 21:11:50 14° NE 21:11:54 14° NE
Meteor 2-16 Rocket 4.4 21:07:11 10° S 21:13:19 82° E 21:19:28 10° N
Cosmos 1340 4.4 21:10:22 10° SW 21:13:51 35° WNW 21:17:23 10° N
Cosmos 1515 Rocket 3.6 21:10:22 10° S 21:14:44 57° E 21:19:08 10° NNE
Cosmos 2228 Rocket 3.0 21:15:29 10° S 21:19:49 65° E 21:24:11 10° NNE
Thor Agena Rocket 4.3 21:17:15 10° N 21:22:24 58° WNW 21:27:34 10° SSW
Lacrosse 5 4.4 21:23:02 10° NNW 21:25:04 12° N 21:27:05 10° NNE
Cosmos 1825 2.3 21:24:40 10° N 21:28:23 51° E 21:29:46 32° SE
OAO 2 Rocket 4.5 21:26:58 10° W 21:31:31 31° SSW 21:33:39 22° SSE
Cosmos 1328 Rocket 4.2 21:29:10 10° SSW 21:33:30 58° W 21:37:54 10° N
Spot 2 Rocket 3.6 21:29:13 13° S 21:33:50 81° WSW 21:38:57 10° NNW
ATLAS 2AS CENTAUR R/B 3.0 21:26:33 10° NW 21:34:28 82° WSW 21:39:43 21° SSE
ATLAS CENTAUR R/B 2.4 21:32:06 10° SW 21:35:36 43° NW 21:39:17 10° NNE
SL-8 R/B 3.7 21:33:24 10° WSW 21:38:13 83° NNW 21:43:02 10° ENE
GEOS 3 Rocket 4.2 21:38:17 10° NE 21:43:04 33° ESE 21:43:44 32° SE
Resurs 01 Rocket 2.7 21:39:57 10° S 21:44:11 43° W 21:48:26 10° NNW
SL-16 R/B 2.5 21:43:11 25° SSE 21:45:56 41° ESE 21:51:12 10° NE
Cosmos 1470 Rocket 4.0 21:42:58 10° NNW 21:47:19 61° W 21:50:30 18° S
Cosmos 2344 4.0 21:42:50 10° S 21:49:36 35° ESE 21:56:37 10° NE
ARGOS 3.2 21:48:17 34° SE 21:50:26 59° ENE 21:55:43 10° N
CZ-4B DEB 4.5 21:49:49 48° S 21:50:42 79° WSW 21:54:12 10° NNW
MetOp-B 4.3 21:51:06 36° SE 21:52:59 55° ENE 21:58:12 10° N
Cosmos 1959 Rocket 4.4 21:47:12 10° S 21:53:22 90° ESE 21:59:32 10° N
Cosmos 1727 Rocket 4.0 21:49:29 10° N 21:55:37 63° E 21:58:14 35° SSE
SL-08 RB Rocket 3.9 21:56:34 46° E 21:57:12 49° ENE 22:01:32 10° N
Cosmos 1869 3.4 21:55:17 27° SSW 21:57:23 78° W 22:01:25 10° N
NOSS 3-4 (A) 4.0 21:57:56 10° NNW 22:04:53 59° NE 22:07:53 36° ESE
NOSS 3-4 (C) 4.0 21:58:02 10° NNW 22:04:59 58° NE 22:07:59 36° ESE
Meteor 2-10 Rocket 3.7 22:01:53 20° S 22:05:57 85° E 22:11:48 10° N
SPOT 1/Viking Rocket 4.2 22:09:39 36° E 22:10:03 37° ENE 22:14:49 10° N
Cosmos 2218 Rocket 4.3 22:04:37 10° SSW 22:10:55 67° W 22:17:19 10° N
ERS-1 Rocket 3.0 22:10:08 54° ESE 22:10:59 64° ENE 22:15:58 10° N
Cosmos 1408 4.1 22:07:55 10° NNW 22:11:16 34° W 22:12:36 25° SW
USA 81 3.9 22:06:35 10° N 22:11:53 73° E 22:13:03 53° SSE
Cosmos 407 Rocket 3.3 22:08:33 10° NNW 22:13:41 73° ENE 22:14:30 60° SE
USA 267 3.4 22:09:15 10° ENE 22:15:33 48° SE 22:21:48 10° SSW
H-2A R/B 1.8 22:17:10 60° SSE 22:18:06 82° ENE 22:23:06 10° N
Cosmos 2297 3.7 22:12:39 10° NNW 22:18:19 68° ENE 22:19:22 56° ESE
Cosmos 1441 Rocket 4.0 22:20:35 43° NNE 22:20:35 43° NNE 22:23:11 10° NNE
Cosmos 2366 rocket 4.5 22:16:14 10° SSW 22:22:21 59° W 22:28:34 10° N
Cosmos 2333 Rocket 4.5 22:19:09 10° WSW 22:23:41 24° NW 22:28:14 10° N
Cosmos 2369 Rocket 4.0 22:20:48 10° N 22:24:34 18° NE 22:25:18 17° ENE
Helios 1B rocket 4.1 22:23:19 10° NNE 22:25:09 24° NE 22:25:09 24° NE
Cosmos 1707 Rocket 4.0 22:30:05 52° NNE 22:30:05 52° NNE 22:33:27 10° N
Cosmos 676 Rocket 3.9 22:28:39 10° NNW 22:33:54 69° ENE 22:33:55 69° ENE
Cosmos 1869 Rocket 3.8 22:34:01 10° NNW 22:38:04 65° WNW 22:38:04 65° WNW
Cosmos 2237 Rocket 4.0 22:35:00 10° WSW 22:39:52 30° WNW 22:44:46 10° N
CZ-4C R/B 3.8 22:44:42 22° NE 22:44:42 22° NE 22:46:50 10° NE
Helios 1A 3.6 22:45:20 55° NNW 22:45:20 55° NNW 22:48:41 10° NNW
Cosmos 1452 Rocket 3.8 22:45:53 57° NE 22:45:53 57° NE 22:50:08 10° NNE
Cosmos 1862 4.3 22:42:14 10° NNW 22:45:28 45° NW 22:45:28 45° NW
Terra 2.9 22:48:17 35° NE 22:48:17 35° NE 22:51:37 10° N
Cosmos 405 Rocket 4.1 22:50:12 37° NW 22:50:12 37° NW 22:53:06 10° N
Cosmos 2278 Rocket 3.9 22:45:01 10° NW 22:49:32 25° WSW 22:51:44 20° SW
ATLAS 5 CENTAUR R/B 3.8 22:48:16 10° NNW 22:53:03 25° NE 22:54:09 24° ENE
SPOT 5 3.6 23:07:48 46° NW 23:07:48 46° NW 23:11:15 10° NNW
Cosmos 1140 Rocket 3.9 23:02:45 10° NNW 23:07:08 60° NW 23:07:08 60° NW
Lacrosse 5 3.5 23:05:24 10° NNW 23:09:40 26° NNE 23:09:43 26° NNE
Cosmos 1934 Rocket 3.9 23:17:32 75° N 23:17:32 75° N 23:23:03 10° N
CZ-2C R/B 4.2 23:30:14 34° N 23:30:14 34° N 23:33:00 10° N
SL-16 R/B 3.9 23:25:17 10° WSW 23:30:08 29° WNW 23:35:01 10° N
Cosmos 1943 Rocket 3.3 23:32:19 10° N 23:36:08 36° NNE 23:36:08 36° NNE
